Weather observations for the past three days for
Houlton, Houlton International Airport
Imperial (Metric)
Date Time (edt) Wind (mph) Vis. (mi.) Weather Sky Cond. Temperature (ºF) Relative Humidity Wind Chill (°F) Heat Index (°F) Pressure Precipitation (in)
Air Dwpt 6 hour altimeter (in) sea level (mb) 1 hr 3 hr 6 hr
Max. Min.
17 18:53 S 7 10.00 Fair CLR 77 71.1 82% 79 29.72 1006.3
17 17:53 S 6 10.00 Fair CLR 81 71.1 72% 85 29.7 1005.5
17 16:53 S 10 G 18 10.00 Fair CLR 82.9 70 65% 87 29.7 1005.3
17 15:53 SW 8 G 21 10.00 A Few Clouds FEW100 86 66.9 53% 89 29.69 1005.1
17 14:53 SW 9 10.00 Partly Cloudy SCT041 84.9 68 57% 88 29.71 1005.7
17 13:53 SW 12 10.00 Partly Cloudy SCT040 SCT049 82.9 69.1 84.9 73 63% 87 29.71 1005.9
17 12:53 W 8 10.00 A Few Clouds FEW036 82.9 66.9 59% 86 29.72 1006.1
17 11:53 W 6 10.00 A Few Clouds FEW032 82 68 63% 85 29.71 1006.0
17 10:53 W 9 10.00 A Few Clouds FEW029 81 70 69% 84 29.72 1006.1
17 09:53 Vrbl 6 10.00 Mostly Cloudy SCT018 BKN025 78.1 71.1 79% 80 29.71 1005.8
17 08:53 SW 7 10.00 Mostly Cloudy BKN010 75.9 70 82% 77 29.71 1005.8
17 07:53 Calm 10.00 Mostly Cloudy BKN005 72 69.1 72 69.1 91% 29.71 1005.7 0.51
17 06:53 Vrbl 3 9.00 Overcast BKN070 OVC095 70 68 93% 29.69 1005.1 0.01
17 05:53 SE 3 2.50 Light Rain Fog/Mist OVC055 70 68 93% 29.66 1004.2 0.08
17 04:53 SE 3 3.00 Rain Fog/Mist SCT042 OVC060 70 68 93% 29.65 1003.9 0.04 0.42
17 03:53 NE 3 8.00 Light Rain OVC080 70 68 93% 29.64 1003.5 0.3
17 02:53 SW 10 2.50 Rain Fog/Mist SCT029 BKN037 OVC050 70 68 93% 29.66 1004.1 0.08
17 01:53 Calm 9.00 Light Rain FEW047 SCT100 BKN120 70 68 75.9 69.1 93% 29.65 1003.8
17 00:53 Calm 10.00 A Few Clouds FEW055 FEW110 70 68 93% 29.66 1004.2
16 23:53 Calm 10.00 A Few Clouds FEW049 70 68 93% 29.67 1004.5
16 22:53 Calm 10.00 A Few Clouds FEW055 70 66.9 90% 29.68 1004.8
16 21:53 Calm 10.00 Fair CLR 70 68 93% 29.68 1005.0
16 20:53 S 3 10.00 Fair CLR 75 69.1 82% 75 29.67 1004.4
16 19:53 S 5 10.00 Fair CLR 75 70 82 73.9 84% 75 29.65 1004.0
16 18:53 SW 5 10.00 A Few Clouds FEW040 79 69.1 72% 82 29.65 1003.7
16 17:53 SW 8 10.00 Fair CLR 81 69.1 67% 84 29.63 1003.0
16 16:53 Vrbl 7 10.00 Fair CLR 82 69.1 65% 85 29.63 1003.1
16 15:53 SW 7 10.00 Mostly Cloudy BKN027 81 69.1 67% 84 29.64 1003.4
16 14:53 SW 5 10.00 Partly Cloudy FEW019 SCT025 79 70 74% 82 29.65 1003.8
16 13:53 NW 5 10.00 Overcast BKN013 OVC020 75 70 75.9 71.1 84% 75 29.67 1004.4 0.55
16 12:53 SW 6 10.00 Overcast SCT008 BKN013 OVC095 73.9 70 88% 29.67 1004.4
16 11:53 S 3 2.00 Light Rain Fog/Mist BKN008 OVC017 72 70 94% 29.68 1005.0 0.31
16 10:53 Vrbl 5 10.00 Mostly Cloudy FEW008 SCT027 BKN080 73.9 70 88% 29.68 1004.8 0.02 0.24
16 09:53 SE 3 4.00 Thunderstorm in Vicinity Light Rain Fog/Mist FEW009 SCT015 OVC033 71.1 68 90% 29.7 1005.4 0.22
16 08:53 Vrbl 7 10.00 Partly Cloudy SCT047 SCT055 73.9 68 82% 29.68 1004.7
16 07:53 Vrbl 5 9.00 A Few Clouds FEW110 73 68 73 66 84% 29.7 1005.5
16 06:53 S 3 8.00 Fair CLR 72 68 87% 29.7 1005.4
16 05:53 Calm 5.00 Fog/Mist CLR 68 66 93% 29.69 1005.4
16 04:53 Calm 5.00 Fog/Mist CLR 66.9 64.9 93% 29.7 1005.5
16 03:53 Calm 7.00 Fair CLR 68 66 93% 29.7 1005.6
16 02:53 SW 3 9.00 Fair CLR 69.1 66 90% 29.7 1005.6
16 01:53 Calm 10.00 Fair CLR 71.1 66.9 75.9 66 87% 29.71 1005.9
16 00:53 Calm 10.00 Fair CLR 66.9 64.9 93% 29.72 1006.2
15 23:53 Calm 9.00 Fair CLR 68 64.9 90% 29.73 1006.5
15 22:53 SW 3 10.00 Fair CLR 69.1 64.9 87% 29.73 1006.4
15 21:53 S 3 10.00 Fair CLR 73 66 79% 29.74 1006.7
15 20:53 S 5 10.00 Fair CLR 73.9 66 76% 29.73 1006.6
15 19:53 S 3 10.00 Fair CLR 75 68 86 75 79% 76 29.73 1006.5
15 18:53 S 3 10.00 Fair CLR 80.1 66 62% 82 29.73 1006.5
15 17:53 SW 10 10.00 Fair CLR 82 64.9 56% 84 29.72 1006.4
15 16:53 SW 6 10.00 Fair CLR 82.9 64 53% 84 29.73 1006.6
15 15:53 SW 8 10.00 Overcast SCT070 BKN090 OVC120 82 64 55% 84 29.74 1006.9
15 14:53 SW 6 10.00 Overcast BKN060 OVC080 81 64.9 58% 83 29.75 1007.1
15 13:53 W 12 10.00 Partly Cloudy FEW055 SCT080 86 64 86 71.1 48% 87 29.75 1007.3
15 12:53 SW 10 G 22 10.00 Fair CLR 84 63 49% 85 29.77 1007.9
15 11:53 SW 13 G 20 10.00 A Few Clouds FEW048 82.9 63 51% 84 29.78 1008.3
15 10:53 SW 15 G 18 10.00 Fair CLR 82 64.9 56% 84 29.79 1008.4
15 09:53 SW 9 10.00 Fair CLR 78.1 64.9 64% 80 29.8 1008.9
15 08:53 SW 6 10.00 Fair CLR 73 66 79% 29.81 1009.3
15 07:53 S 6 10.00 Fair CLR 71.1 64.9 71.1 61 81% 29.82 1009.5
15 06:53 S 3 10.00 Fair CLR 69.1 64 84% 29.81 1009.4
15 05:53 S 5 10.00 Fair CLR 64 61 90% 29.81 1009.4
15 04:53 SW 5 10.00 Fair CLR 63 60.1 90% 29.81 1009.4
15 03:53 Calm 9.00 Fair CLR 61 59 93% 29.81 1009.4
15 02:53 Calm 7.00 Fair CLR 61 60.1 97% 29.81 1009.4
15 01:53 Calm 8.00 Fair CLR 63 61 77 62.1 93% 29.82 1009.7
15 00:53 Calm 9.00 Fair CLR 64 63 96% 29.83 1009.9
14 23:53 SW 3 9.00 Fair CLR 66 63 90% 29.83 1010.1
14 22:53 S 3 10.00 Fair CLR 69.1 64.9 87% 29.83 1010.0
14 21:53 Calm 10.00 Fair CLR 68 64.9 90% 29.83 1010.0
14 20:53 SW 3 10.00 Fair CLR 71.1 66.9 87% 29.82 1009.7
14 19:53 SW 5 10.00 Fair CLR 77 68 87.1 77 74% 79 29.82 1009.5
Date Time (edt) Wind (mph) Vis. (mi.) Weather Sky Cond. Air Dwpt Max. Min. Relative Humidity Wind Chill (°F) Heat Index (°F) altimeter (in) sea level (mb) 1 hr 3 hr 6 hr
6 hour
Temperature (ºF) Pressure Precipitation (in)